,,Stat6,,Stat2,,Stat8,,Stat9,,Stat10,,Wind1,,Wind1,
time,status,PA1M_AVG,status,PR1M_SUM,status,RH1M_AVG,status,SR1M_AVG,status,TA1M_AVG,status,W1dAve1m,status,W1sAve1m,
2007-08-15, 00:00:00,VALID,918.126,VALID,0,VALID,100,VALID,-0.101885,VALID,18.7478,VALID,29,VALID,1.41186,
2007-08-15, 00:01:00,VALID,918.105,VALID,0,VALID,100,VALID,-0.0849042,VALID,18.7444,VALID,24,VALID,1.56864,
2007-08-15, 00:02:00,VALID,918.11,VALID,0,VALID,100,VALID,-0.101885,VALID,18.7441,VALID,24,VALID,1.3641,
2007-08-15, 00:03:00,VALID,918.126,VALID,0,VALID,100,VALID,-0.101885,VALID,18.7483,VALID,23,VALID,1.36291,
2007-08-15, 00:04:00,VALID,918.139,VALID,0,VALID,100,VALID,-0.101885,VALID,18.7543,VALID,12,VALID,1.10469,
2007-08-15, 00:05:00,VALID,918.159,VALID,0,VALID,100,VALID,-0.101885,VALID,18.7608,VALID,359,VALID,1.02108,
2007-08-15, 00:06:00,VALID,918.167,VALID,0,VALID,100,VALID,-0.0849042,VALID,18.7701,VALID,3,VALID,0.646484,
2007-08-15, 00:07:00,VALID,918.172,VALID,0,VALID,100,VALID,-0.101885,VALID,18.79,VALID,5,VALID,0.43843,
2007-08-15, 00:08:00,VALID,918.167,VALID,0,VALID,100,VALID,-0.0679233,VALID,18.809,VALID,5,VALID,0.0828488,
2007-08-15, 00:09:00,VALID,918.172,VALID,0,VALID,100,VALID,-0.0679233,VALID,18.8447,VALID,5,VALID,0,
2007-08-15, 00:10:00,VALID,918.162,VALID,0,VALID,100,VALID,-0.0509425,VALID,18.8447,VALID,5,VALID,0,
2007-08-15, 00:11:00,VALID,918.161,VALID,0,VALID,100,VALID,-0.101885,VALID,18.8417,VALID,5,VALID,0,
2007-08-15, 00:12:00,VALID,918.154,VALID,0,VALID,100,VALID,-0.0849042,VALID,18.822,VALID,5,VALID,0.0855655,
2007-08-15, 00:13:00,VALID,918.148,VALID,0,VALID,100,VALID,-0.0509425,VALID,18.796,VALID,6,VALID,0.0572917,
2007-08-15, 00:14:00,VALID,918.151,VALID,0,VALID,100,VALID,-0.0339617,VALID,18.7828,VALID,6,VALID,0.188408,
2007-08-15, 00:15:00,VALID,918.15,VALID,0,VALID,100,VALID,-0.0509425,VALID,18.7471,VALID,6,VALID,0.347561,
2007-08-15, 00:16:00,VALID,918.14,VALID,0,VALID,100,VALID,-0.0509425,VALID,18.7149,VALID,6,VALID,0.166349,
2007-08-15, 00:17:00,VALID,918.138,VALID,0,VALID,100,VALID,-0.0849042,VALID,18.6792,VALID,6,VALID,0,
2007-08-15, 00:18:00,VALID,918.148,VALID,0,VALID,100,VALID,-0.0509425,VALID,18.6336,VALID,6,VALID,0,
2007-08-15, 00:19:00,VALID,918.144,VALID,0,VALID,100,VALID,-0.0679233,VALID,18.5949,VALID,6,VALID,0,
2007-08-15, 00:20:00,VALID,918.123,VALID,0,VALID,100,VALID,-0.0509425,VALID,18.556,VALID,6,VALID,0,
2007-08-15, 00:21:00,VALID,918.108,VALID,0,VALID,100,VALID,-0.0849042,VALID,18.5268,VALID,6,VALID,0,
2007-08-15, 00:22:00,VALID,918.074,VALID,0,VALID,100,VALID,-0.0679233,VALID,18.5104,VALID,6,VALID,0.00136719,
2007-08-15, 00:23:00,VALID,918.06,VALID,0,VALID,100,VALID,-0.0849042,VALID,18.4909,VALID,6,VALID,0.131597,
2007-08-15, 00:24:00,VALID,918.058,VALID,0,VALID,100,VALID,-0.0679233,VALID,18.4877,VALID,6,VALID,0.455915,
2007-08-15, 00:25:00,VALID,918.053,VALID,0,VALID,100,VALID,-0.0849042,VALID,18.5305,VALID,6,VALID,0.465199,
2007-08-15, 00:26:00,VALID,918.048,VALID,0,VALID,100,VALID,-0.0679233,VALID,18.5625,VALID,6,VALID,0.393512,
2007-08-15, 00:27:00,VALID,918.043,VALID,0,VALID,100,VALID,-0.0679233,VALID,18.585,VALID,6,VALID,0.392531,
2007-08-15, 00:28:00,VALID,918.041,VALID,0,VALID,100,VALID,-0.0339617,VALID,18.6109,VALID,6,VALID,0.210938,
2007-08-15, 00:29:00,VALID,918.036,VALID,0,VALID,100,VALID,-0.101885,VALID,18.647,VALID,6,VALID,0.0703125,
2007-08-15, 00:30:00,VALID,918.012,VALID,0,VALID,100,VALID,-0.0509425,VALID,18.6792,VALID,6,VALID,0.0610465,
2007-08-15, 00:31:00,VALID,917.985,VALID,0,VALID,100,VALID,-0.0679233,VALID,18.6989,VALID,6,VALID,0.0922619,
2007-08-15, 00:32:00,VALID,917.973,VALID,0,VALID,100,VALID,-0.0849042,VALID,18.676,VALID,5,VALID,0.147135,
2007-08-15, 00:33:00,VALID,917.939,VALID,0,VALID,100,VALID,-0.0679233,VALID,18.6533,VALID,359,VALID,0.175959,
2007-08-15, 00:34:00,VALID,917.918,VALID,0,VALID,100,VALID,-0.0679233,VALID,18.6693,VALID,348,VALID,0.469703,
2007-08-15, 00:35:00,VALID,917.877,VALID,0,VALID,100,VALID,-0.0509425,VALID,18.676,VALID,347,VALID,0.515997,
2007-08-15, 00:36:00,VALID,917.849,VALID,0,VALID,100,VALID,-0.0339617,VALID,18.676,VALID,340,VALID,0.338663,
2007-08-15, 00:37:00,VALID,917.809,VALID,0,VALID,100,VALID,-0.0679233,VALID,18.6985,VALID,309,VALID,0.310069,
2007-08-15, 00:38:00,VALID,917.772,VALID,0,VALID,100,VALID,-0.0849042,VALID,18.7349,VALID,293,VALID,0.479106,
2007-08-15, 00:39:00,VALID,917.752,VALID,0,VALID,100,VALID,-0.0509425,VALID,18.7249,VALID,291,VALID,0.227983,
2007-08-15, 00:40:00,VALID,917.741,VALID,0,VALID,100,VALID,-0.0679233,VALID,18.7047,VALID,291,VALID,0.275254,
2007-08-15, 00:41:00,VALID,917.729,VALID,0,VALID,100,VALID,-0.0509425,VALID,18.6922,VALID,291,VALID,0.239583,
2007-08-15, 00:42:00,VALID,917.714,VALID,0,VALID,100,VALID,-0.101885,VALID,18.6563,VALID,291,VALID,0.294531,
2007-08-15, 00:43:00,VALID,917.706,VALID,0,VALID,100,VALID,-0.0679233,VALID,18.6436,VALID,291,VALID,0.184524,
2007-08-15, 00:44:00,VALID,917.686,VALID,0,VALID,100,VALID,-0.101885,VALID,18.6306,VALID,291,VALID,0,
2007-08-15, 00:45:00,VALID,917.661,VALID,0,VALID,100,VALID,-0.0339617,VALID,18.5752,VALID,291,VALID,0,
2007-08-15, 00:46:00,VALID,917.627,VALID,0,VALID,100,VALID,-0.0509425,VALID,18.5136,VALID,291,VALID,0,
2007-08-15, 00:47:00,VALID,917.593,VALID,0,VALID,100,VALID,-0.0169808,VALID,18.4001,VALID,291,VALID,0,
2007-08-15, 00:48:00,VALID,917.57,VALID,0,VALID,100,VALID,-0.0339617,VALID,18.3225,VALID,291,VALID,0,
2007-08-15, 00:49:00,VALID,917.558,VALID,0,VALID,100,VALID,-0.0679233,VALID,18.3,VALID,291,VALID,0,
2007-08-15, 00:50:00,VALID,917.541,VALID,0,VALID,100,VALID,-0.0169808,VALID,18.2998,VALID,291,VALID,0.0555959,
2007-08-15, 00:51:00,VALID,917.515,VALID,0,VALID,100,VALID,-0.0509425,VALID,18.2836,VALID,291,VALID,0.320676,
2007-08-15, 00:52:00,VALID,917.505,VALID,0,VALID,100,VALID,-0.0679233,VALID,18.2317,VALID,291,VALID,0.442951,
2007-08-15, 00:53:00,VALID,917.463,VALID,0,VALID,100,VALID,-0.0339617,VALID,18.2349,VALID,291,VALID,0.496652,
2007-08-15, 00:54:00,VALID,917.43,VALID,0,VALID,100,VALID,-0.0509425,VALID,18.2998,VALID,292,VALID,0.549716,
2007-08-15, 00:55:00,VALID,917.415,VALID,0,VALID,100,VALID,-0.0339617,VALID,18.3549,VALID,94,VALID,0.655887,
2007-08-15, 00:56:00,VALID,917.38,VALID,0,VALID,100,VALID,-0.0679233,VALID,18.3679,VALID,94,VALID,0.661966,
2007-08-15, 00:57:00,VALID,917.347,VALID,0,VALID,100,VALID,-0.0339617,VALID,18.3484,VALID,94,VALID,0.781822,
2007-08-15, 00:58:00,VALID,917.339,VALID,0,VALID,100,VALID,-0.0679233,VALID,18.329,VALID,86,VALID,0.567708,
2007-08-15, 00:59:00,VALID,917.33,VALID,0,VALID,100,VALID,-0.101885,VALID,18.3357,VALID,82,VALID,0.402902,
2007-08-15, 01:00:00,VALID,917.33,VALID,0,VALID,100,VALID,-0.0679233,VALID,18.3971,VALID,75,VALID,0.446701,
2007-08-15, 01:01:00,VALID,917.323,VALID,0,VALID,100,VALID,-0.0339617,VALID,18.4168,VALID,69,VALID,0.254755,
2007-08-15, 01:02:00,VALID,917.329,VALID,0,VALID,100,VALID,-0.0849042,VALID,18.4298,VALID,68,VALID,0.0303819,
2007-08-15, 01:03:00,VALID,917.326,VALID,0,VALID,100,VALID,-0.0509425,VALID,18.4198,VALID,68,VALID,0,
2007-08-15, 01:04:00,VALID,917.319,VALID,0,VALID,100,VALID,-0.0849042,VALID,18.3711,VALID,68,VALID,0,
2007-08-15, 01:05:00,VALID,917.313,VALID,0,VALID,100,VALID,-0.0849042,VALID,18.3063,VALID,87,VALID,0.306686,
2007-08-15, 01:06:00,VALID,917.314,VALID,0,VALID,100,VALID,-0.0849042,VALID,18.2064,VALID,174,VALID,0.916921,
2007-08-15, 01:07:00,VALID,917.334,VALID,0,VALID,100,VALID,-0.101885,VALID,18.073,VALID,166,VALID,0.897166,
2007-08-15, 01:08:00,VALID,917.336,VALID,0,VALID,100,VALID,-0.0679233,VALID,18.0179,VALID,152,VALID,0.820508,
2007-08-15, 01:09:00,VALID,917.335,VALID,0,VALID,100,VALID,-0.0849042,VALID,18.0116,VALID,150,VALID,0.739462,
2007-08-15, 01:10:00,VALID,917.331,VALID,0,VALID,100,VALID,-0.0339617,VALID,18.0144,VALID,152,VALID,0.789426,
2007-08-15, 01:11:00,VALID,917.313,VALID,0,VALID,100,VALID,-0.0339617,VALID,18.0404,VALID,153,VALID,0.720084,
2007-08-15, 01:12:00,VALID,917.293,VALID,0,VALID,100,VALID,-0.0339617,VALID,18.0598,VALID,152,VALID,0.400213,
2007-08-15, 01:13:00,VALID,917.284,VALID,0,VALID,100,VALID,-0.0339617,VALID,18.0566,VALID,152,VALID,0.123598,
2007-08-15, 01:14:00,VALID,917.26,VALID,0,VALID,100,VALID,-0.0509425,VALID,18.0466,VALID,152,VALID,0,
2007-08-15, 01:15:00,VALID,917.257,VALID,0,VALID,100,VALID,-0.0339617,VALID,18.0309,VALID,152,VALID,0,
2007-08-15, 01:16:00,VALID,917.237,VALID,0,VALID,100,VALID,-0.0169808,VALID,18.0242,VALID,152,VALID,0,
2007-08-15, 01:17:00,VALID,917.232,VALID,0,VALID,100,VALID,-0.0849042,VALID,17.9947,VALID,152,VALID,0,
2007-08-15, 01:18:00,VALID,917.22,VALID,0,VALID,100,VALID,-0.0509425,VALID,17.9755,VALID,152,VALID,0,
2007-08-15, 01:19:00,VALID,917.211,VALID,0,VALID,100,VALID,-0.0169808,VALID,17.9299,VALID,152,VALID,0.0302973,
2007-08-15, 01:20:00,VALID,917.201,VALID,0,VALID,100,VALID,-0.0169808,VALID,17.862,VALID,152,VALID,0.00272529,
2007-08-15, 01:21:00,VALID,917.21,VALID,0,VALID,100,VALID,-0.0679233,VALID,17.7773,VALID,152,VALID,0,
2007-08-15, 01:22:00,VALID,917.22,VALID,0,VALID,100,VALID,-0.0169808,VALID,17.7648,VALID,152,VALID,0,
2007-08-15, 01:23:00,VALID,917.247,VALID,0,VALID,100,VALID,-0.0339617,VALID,17.758,VALID,152,VALID,0,
2007-08-15, 01:24:00,VALID,917.261,VALID,0,VALID,100,VALID,-0.0509425,VALID,17.7743,VALID,152,VALID,0,
2007-08-15, 01:25:00,VALID,917.289,VALID,0,VALID,100,VALID,-0.0169808,VALID,17.7835,VALID,152,VALID,0,
2007-08-15, 01:26:00,VALID,917.318,VALID,0,VALID,100,VALID,-0.0339617,VALID,17.7552,VALID,152,VALID,0.388715,
2007-08-15, 01:27:00,VALID,917.35,VALID,0,VALID,100,VALID,-0.101885,VALID,17.7094,VALID,153,VALID,0.810082,
2007-08-15, 01:28:00,VALID,917.355,VALID,0,VALID,100,VALID,-0.0509425,VALID,17.7289,VALID,153,VALID,1.00391,
2007-08-15, 01:29:00,VALID,917.365,VALID,0,VALID,100,VALID,0,VALID,17.784,VALID,153,VALID,1.05918,
2007-08-15, 01:30:00,VALID,917.364,VALID,0,VALID,100,VALID,-0.0339617,VALID,17.8354,VALID,153,VALID,1.13244,
2007-08-15, 01:31:00,VALID,917.363,VALID,0,VALID,100,VALID,-0.0339617,VALID,17.9204,VALID,153,VALID,0.89444,
2007-08-15, 01:32:00,VALID,917.366,VALID,0,VALID,100,VALID,-0.0169808,VALID,17.9394,VALID,152,VALID,0.709032,
2007-08-15, 01:33:00,VALID,917.359,VALID,0,VALID,100,VALID,-0.0339617,VALID,17.9429,VALID,152,VALID,0.475074,
2007-08-15, 01:34:00,VALID,917.351,VALID,0,VALID,100,VALID,-0.0339617,VALID,17.9526,VALID,152,VALID,0.401786,
2007-08-15, 01:35:00,VALID,917.333,VALID,0,VALID,100,VALID,-0.0169808,VALID,17.8222,VALID,152,VALID,0.165039,
2007-08-15, 01:36:00,VALID,917.311,VALID,0,VALID,100,VALID,-0.0509425,VALID,17.6737,VALID,146,VALID,0.355015,
2007-08-15, 01:37:00,VALID,917.31,VALID,0,VALID,100,VALID,-0.0339617,VALID,17.6578,VALID,132,VALID,0.336509,
2007-08-15, 01:38:00,VALID,917.295,VALID,0,VALID,100,VALID,-0.0509425,VALID,17.6705,VALID,132,VALID,0.164844,
2007-08-15, 01:39:00,VALID,917.303,VALID,0,VALID,100,VALID,-0.0849042,VALID,17.6383,VALID,132,VALID,0.0176711,
2007-08-15, 01:40:00,VALID,917.295,VALID,0,VALID,100,VALID,-0.0509425,VALID,17.6188,VALID,132,VALID,0.0541424,
2007-08-15, 01:41:00,VALID,917.306,VALID,0,VALID,100,VALID,-0.0509425,VALID,17.6448,VALID,132,VALID,0.2117,
2007-08-15, 01:42:00,VALID,917.316,VALID,0,VALID,100,VALID,-0.0509425,VALID,17.6415,VALID,132,VALID,0.347565,
2007-08-15, 01:43:00,VALID,917.324,VALID,0,VALID,100,VALID,-0.0509425,VALID,17.6221,VALID,132,VALID,0.209549,
2007-08-15, 01:44:00,VALID,917.345,VALID,0,VALID,100,VALID,-0.0339617,VALID,17.6154,VALID,132,VALID,0.3367,
2007-08-15, 01:45:00,VALID,917.356,VALID,0,VALID,100,VALID,-0.0339617,VALID,17.6283,VALID,132,VALID,0.0830305,
2007-08-15, 01:46:00,VALID,917.371,VALID,0,VALID,100,VALID,-0.0169808,VALID,17.6415,VALID,132,VALID,0.12571,
2007-08-15, 01:47:00,VALID,917.371,VALID,0,VALID,100,VALID,-0.0509425,VALID,17.6376,VALID,133,VALID,0.151867,
2007-08-15, 01:48:00,VALID,917.387,VALID,0,VALID,100,VALID,-0.0339617,VALID,17.6443,VALID,136,VALID,0.0970703,
2007-08-15, 01:49:00,VALID,917.369,VALID,0,VALID,100,VALID,-0.0509425,VALID,17.6446,VALID,136,VALID,0.249628,
2007-08-15, 01:50:00,VALID,917.367,VALID,0,VALID,100,VALID,-0.0509425,VALID,17.677,VALID,136,VALID,0.0167411,
2007-08-15, 01:51:00,VALID,917.383,VALID,0,VALID,100,VALID,-0.0339617,VALID,17.7219,VALID,136,VALID,0,
2007-08-15, 01:52:00,VALID,917.394,VALID,0,VALID,100,VALID,-0.0169808,VALID,17.7092,VALID,135,VALID,0.160334,
2007-08-15, 01:53:00,VALID,917.396,VALID,0,VALID,100,VALID,-0.0169808,VALID,17.6059,VALID,134,VALID,0.377725,
2007-08-15, 01:54:00,VALID,917.404,VALID,0,VALID,100,VALID,-0.0169808,VALID,17.5892,VALID,134,VALID,0.423549,
2007-08-15, 01:55:00,VALID,917.398,VALID,0,VALID,100,VALID,-0.0509425,VALID,17.586,VALID,124,VALID,0.667039,
2007-08-15, 01:56:00,VALID,917.411,VALID,0,VALID,100,VALID,-0.0679233,VALID,17.5637,VALID,89,VALID,0.627362,
2007-08-15, 01:57:00,VALID,917.407,VALID,0,VALID,100,VALID,-0.0509425,VALID,17.5248,VALID,77,VALID,0.567522,
2007-08-15, 01:58:00,VALID,917.394,VALID,0,VALID,100,VALID,-0.0339617,VALID,17.5345,VALID,77,VALID,0.470703,
2007-08-15, 01:59:00,VALID,917.384,VALID,0,VALID,100,VALID,-0.0169808,VALID,17.5536,VALID,81,VALID,0.5,
2007-08-15, 02:00:00,VALID,917.38,VALID,0,VALID,100,VALID,0,VALID,17.541,VALID,117,VALID,0.617914,
2007-08-15, 02:01:00,VALID,917.38,VALID,0,VALID,100,VALID,0,VALID,17.5278,VALID,128,VALID,0.928267,
2007-08-15, 02:02:00,VALID,917.365,VALID,0,VALID,100,VALID,-0.0339617,VALID,17.6379,VALID,130,VALID,1.12791,
2007-08-15, 02:03:00,VALID,917.358,VALID,0,VALID,100,VALID,-0.0679233,VALID,17.7416,VALID,134,VALID,1.08873,
2007-08-15, 02:04:00,VALID,917.335,VALID,0,VALID,100,VALID,-0.0169808,VALID,17.8164,VALID,135,VALID,0.998633,
2007-08-15, 02:05:00,VALID,917.345,VALID,0,VALID,100,VALID,0,VALID,17.8806,VALID,136,VALID,0.930778,
2007-08-15, 02:06:00,VALID,917.344,VALID,0,VALID,100,VALID,-0.0339617,VALID,17.8745,VALID,134,VALID,0.862847,
2007-08-15, 02:07:00,VALID,917.349,VALID,0,VALID,100,VALID,0,VALID,17.803,VALID,135,VALID,1.27102,
2007-08-15, 02:08:00,VALID,917.356,VALID,0,VALID,100,VALID,-0.0339617,VALID,17.7645,VALID,144,VALID,1.03543,
2007-08-15, 02:09:00,VALID,917.364,VALID,0,VALID,100,VALID,0,VALID,17.7905,VALID,155,VALID,1.06548,
2007-08-15, 02:10:00,VALID,917.375,VALID,0,VALID,100,VALID,-0.0169808,VALID,17.8062,VALID,149,VALID,0.777253,
2007-08-15, 02:11:00,VALID,917.374,VALID,0,VALID,100,VALID,-0.0169808,VALID,17.8092,VALID,146,VALID,0.464935,
2007-08-15, 02:12:00,VALID,917.377,VALID,0,VALID,100,VALID,0,VALID,17.7933,VALID,146,VALID,0.417696,
2007-08-15, 02:13:00,VALID,917.362,VALID,0,VALID,100,VALID,-0.0169808,VALID,17.7805,VALID,146,VALID,0.203835,
2007-08-15, 02:14:00,VALID,917.35,VALID,0,VALID,100,VALID,-0.0169808,VALID,17.7773,VALID,146,VALID,0.174237,
2007-08-15, 02:15:00,VALID,917.349,VALID,0,VALID,100,VALID,-0.0339617,VALID,17.7643,VALID,146,VALID,0.256904,
2007-08-15, 02:16:00,VALID,917.34,VALID,0,VALID,100,VALID,0,VALID,17.7483,VALID,161,VALID,0.662348,
2007-08-15, 02:17:00,VALID,917.329,VALID,0,VALID,100,VALID,-0.0679233,VALID,17.7092,VALID,154,VALID,0.75,
2007-08-15, 02:18:00,VALID,917.319,VALID,0,VALID,100,VALID,-0.0169808,VALID,17.7031,VALID,154,VALID,1.01935,
2007-08-15, 02:19:00,VALID,917.321,VALID,0,VALID,100,VALID,-0.0339617,VALID,17.69,VALID,153,VALID,0.956055,
2007-08-15, 02:20:00,VALID,917.296,VALID,0,VALID,100,VALID,-0.0339617,VALID,17.6837,VALID,152,VALID,0.898615,
2007-08-15, 02:21:00,VALID,917.28,VALID,0,VALID,100,VALID,-0.0169808,VALID,17.6802,VALID,151,VALID,0.495998,
2007-08-15, 02:22:00,VALID,917.26,VALID,0,VALID,100,VALID,-0.0339617,VALID,17.6867,VALID,154,VALID,0.297238,
2007-08-15, 02:23:00,VALID,917.246,VALID,0,VALID,100,VALID,-0.0169808,VALID,17.6958,VALID,154,VALID,0.370508,
2007-08-15, 02:24:00,VALID,917.235,VALID,0,VALID,100,VALID,-0.0339617,VALID,17.7284,VALID,154,VALID,0.15676,
2007-08-15, 02:25:00,VALID,917.235,VALID,0,VALID,100,VALID,-0.0339617,VALID,17.6666,VALID,154,VALID,0.047247,
2007-08-15, 02:26:00,VALID,917.234,VALID,0,VALID,100,VALID,-0.0339617,VALID,17.5538,VALID,154,VALID,0.224927,
2007-08-15, 02:27:00,VALID,917.223,VALID,0,VALID,100,VALID,-0.0169808,VALID,17.4917,VALID,154,VALID,0.043064,
2007-08-15, 02:28:00,VALID,917.232,VALID,0,VALID,100,VALID,-0.0169808,VALID,17.4433,VALID,154,VALID,0.338605,
2007-08-15, 02:29:00,VALID,917.235,VALID,0,VALID,100,VALID,-0.0509425,VALID,17.4401,VALID,105,VALID,0.514717,
2007-08-15, 02:30:00,VALID,917.229,VALID,0,VALID,100,VALID,0,VALID,17.4686,VALID,80,VALID,0.858467,
2007-08-15, 02:31:00,VALID,917.242,VALID,0,VALID,100,VALID,-0.0169808,VALID,17.4332,VALID,69,VALID,1.1753,
2007-08-15, 02:32:00,VALID,917.24,VALID,0,VALID,100,VALID,0,VALID,17.501,VALID,64,VALID,1.15382,
2007-08-15, 02:33:00,VALID,917.227,VALID,0,VALID,100,VALID,-0.0339617,VALID,17.5756,VALID,59,VALID,1.06528,
2007-08-15, 02:34:00,VALID,917.201,VALID,0,VALID,100,VALID,-0.0169808,VALID,17.6184,VALID,58,VALID,0.95,
2007-08-15, 02:35:00,VALID,917.193,VALID,0,VALID,100,VALID,-0.0339617,VALID,17.6443,VALID,57,VALID,0.584077,
2007-08-15, 02:36:00,VALID,917.184,VALID,0,VALID,100,VALID,-0.0339617,VALID,17.6372,VALID,55,VALID,0.727805,
2007-08-15, 02:37:00,VALID,917.181,VALID,0,VALID,100,VALID,0,VALID,17.6015,VALID,55,VALID,0.611737,
2007-08-15, 02:38:00,VALID,917.18,VALID,0,VALID,100,VALID,-0.0169808,VALID,17.6247,VALID,55,VALID,0.252308,
2007-08-15, 02:39:00,VALID,917.169,VALID,0,VALID,100,VALID,0,VALID,17.6569,VALID,55,VALID,0.0533203,
2007-08-15, 02:40:00,VALID,917.15,VALID,0,VALID,100,VALID,-0.0169808,VALID,17.6631,VALID,55,VALID,0,
2007-08-15, 02:41:00,VALID,917.129,VALID,0,VALID,100,VALID,0.0169808,VALID,17.6765,VALID,55,VALID,0,
2007-08-15, 02:42:00,VALID,917.115,VALID,0,VALID,100,VALID,0,VALID,17.6798,VALID,55,VALID,0.0330078,
2007-08-15, 02:43:00,VALID,917.083,VALID,0,VALID,100,VALID,-0.0339617,VALID,17.6995,VALID,55,VALID,0.00620994,
2007-08-15, 02:44:00,VALID,917.053,VALID,0,VALID,100,VALID,0,VALID,17.7282,VALID,55,VALID,0.00985863,
2007-08-15, 02:45:00,VALID,917.022,VALID,0,VALID,100,VALID,-0.0339617,VALID,17.7312,VALID,55,VALID,0,
2007-08-15, 02:46:00,VALID,916.996,VALID,0,VALID,100,VALID,0,VALID,17.7187,VALID,55,VALID,0,
2007-08-15, 02:47:00,VALID,917,VALID,0,VALID,100,VALID,0.0169808,VALID,17.7215,VALID,55,VALID,0,
2007-08-15, 02:48:00,VALID,917.003,VALID,0,VALID,100,VALID,0,VALID,17.7541,VALID,55,VALID,0.170201,
2007-08-15, 02:49:00,VALID,917.006,VALID,0,VALID,100,VALID,0,VALID,17.777,VALID,12,VALID,0.362393,
2007-08-15, 02:50:00,VALID,916.998,VALID,0,VALID,100,VALID,0,VALID,17.8123,VALID,343,VALID,0.258203,
2007-08-15, 02:51:00,VALID,916.992,VALID,0,VALID,100,VALID,0,VALID,17.8414,VALID,332,VALID,0.0498935,
2007-08-15, 02:52:00,VALID,916.997,VALID,0,VALID,100,VALID,0,VALID,17.8546,VALID,332,VALID,0,
2007-08-15, 02:53:00,VALID,916.962,VALID,0,VALID,100,VALID,0,VALID,17.8445,VALID,332,VALID,0,
2007-08-15, 02:54:00,VALID,916.945,VALID,0,VALID,100,VALID,0,VALID,17.8382,VALID,332,VALID,0,
2007-08-15, 02:55:00,VALID,916.918,VALID,0,VALID,100,VALID,0,VALID,17.8185,VALID,332,VALID,0,
2007-08-15, 02:56:00,VALID,916.9,VALID,0,VALID,100,VALID,0,VALID,17.7734,VALID,332,VALID,0,
2007-08-15, 02:57:00,VALID,916.888,VALID,0,VALID,100,VALID,0,VALID,17.7377,VALID,332,VALID,0,
2007-08-15, 02:58:00,VALID,916.883,VALID,0,VALID,100,VALID,0,VALID,17.7092,VALID,332,VALID,0,
2007-08-15, 02:59:00,VALID,916.879,VALID,0,VALID,100,VALID,0.0169808,VALID,17.6796,VALID,332,VALID,0,
2007-08-15, 03:00:00,VALID,916.866,VALID,0,VALID,100,VALID,0.0169808,VALID,17.6374,VALID,332,VALID,0,
2007-08-15, 03:01:00,VALID,916.86,VALID,0,VALID,100,VALID,0,VALID,17.4494,VALID,342,VALID,0.29668,
2007-08-15, 03:02:00,VALID,916.852,VALID,0,VALID,100,VALID,0,VALID,17.2998,VALID,22,VALID,0.693824,
2007-08-15, 03:03:00,VALID,916.851,VALID,0,VALID,100,VALID,0,VALID,17.2938,VALID,32,VALID,0.645167,
2007-08-15, 03:04:00,VALID,916.849,VALID,0,VALID,100,VALID,0.0169808,VALID,17.3419,VALID,38,VALID,0.794779,
2007-08-15, 03:05:00,VALID,916.858,VALID,0,VALID,100,VALID,0.0169808,VALID,17.3677,VALID,40,VALID,0.733487,
2007-08-15, 03:06:00,VALID,916.84,VALID,0,VALID,100,VALID,0.0339617,VALID,17.4716,VALID,27,VALID,0.804878,
2007-08-15, 03:07:00,VALID,916.827,VALID,0,VALID,100,VALID,0.0169808,VALID,17.5464,VALID,25,VALID,0.50558,
2007-08-15, 03:08:00,VALID,916.807,VALID,0,VALID,100,VALID,0,VALID,17.5883,VALID,25,VALID,0.302827,
2007-08-15, 03:09:00,VALID,916.795,VALID,0,VALID,100,VALID,0.0339617,VALID,17.6303,VALID,25,VALID,0.271984,
2007-08-15, 03:10:00,VALID,916.789,VALID,0,VALID,100,VALID,0.0169808,VALID,17.6465,VALID,25,VALID,0.150799,
2007-08-15, 03:11:00,VALID,916.776,VALID,0,VALID,100,VALID,0.0339617,VALID,17.6594,VALID,25,VALID,0.0701265,
2007-08-15, 03:12:00,VALID,916.764,VALID,0,VALID,100,VALID,0.0339617,VALID,17.6955,VALID,25,VALID,0.196057,
2007-08-15, 03:13:00,VALID,916.751,VALID,0,VALID,100,VALID,0,VALID,17.6793,VALID,25,VALID,0.100074,
2007-08-15, 03:14:00,VALID,916.74,VALID,0,VALID,100,VALID,0.0169808,VALID,17.6826,VALID,25,VALID,0.015253,
2007-08-15, 03:15:00,VALID,916.717,VALID,0,VALID,100,VALID,-0.0849042,VALID,17.6707,VALID,25,VALID,0.135975,
2007-08-15, 03:16:00,VALID,916.679,VALID,0,VALID,100,VALID,-0.101885,VALID,17.6835,VALID,11,VALID,0.545313,
2007-08-15, 03:17:00,VALID,916.67,VALID,0,VALID,100,VALID,-0.0509425,VALID,17.7291,VALID,354,VALID,0.504542,
2007-08-15, 03:18:00,VALID,916.645,VALID,0,VALID,100,VALID,-0.0679233,VALID,17.7453,VALID,350,VALID,0.414444,
2007-08-15, 03:19:00,VALID,916.63,VALID,0,VALID,100,VALID,-0.0849042,VALID,17.7877,VALID,349,VALID,0.123438,
2007-08-15, 03:20:00,VALID,916.618,VALID,0,VALID,100,VALID,-0.101885,VALID,17.7972,VALID,349,VALID,0,
2007-08-15, 03:21:00,VALID,916.618,VALID,0,VALID,100,VALID,-0.0679233,VALID,17.7613,VALID,349,VALID,0.113653,
2007-08-15, 03:22:00,VALID,916.612,VALID,0,VALID,100,VALID,-0.0679233,VALID,17.7161,VALID,349,VALID,0.220084,
2007-08-15, 03:23:00,VALID,916.615,VALID,0,VALID,100,VALID,-0.118866,VALID,17.7031,VALID,350,VALID,0.304688,
2007-08-15, 03:24:00,VALID,916.612,VALID,0,VALID,100,VALID,-0.0679233,VALID,17.6351,VALID,354,VALID,0.258765,
2007-08-15, 03:25:00,VALID,916.62,VALID,0,VALID,100,VALID,-0.101885,VALID,17.557,VALID,354,VALID,0.286204,
2007-08-15, 03:26:00,VALID,916.619,VALID,0,VALID,100,VALID,-0.0849042,VALID,17.4922,VALID,354,VALID,0.077567,
2007-08-15, 03:27:00,VALID,916.608,VALID,0,VALID,100,VALID,-0.0339617,VALID,17.5151,VALID,354,VALID,0.186967,
2007-08-15, 03:28:00,VALID,916.599,VALID,0,VALID,100,VALID,-0.101885,VALID,17.5702,VALID,354,VALID,0.0693824,
2007-08-15, 03:29:00,VALID,916.592,VALID,0,VALID,100,VALID,-0.101885,VALID,17.5832,VALID,354,VALID,0,
2007-08-15, 03:30:00,VALID,916.575,VALID,0,VALID,100,VALID,-0.101885,VALID,17.5774,VALID,354,VALID,0,
2007-08-15, 03:31:00,VALID,916.564,VALID,0,VALID,100,VALID,-0.0849042,VALID,17.5605,VALID,358,VALID,0.137091,
2007-08-15, 03:32:00,VALID,916.557,VALID,0,VALID,100,VALID,-0.0679233,VALID,17.5897,VALID,2,VALID,0.0879836,
2007-08-15, 03:33:00,VALID,916.561,VALID,0,VALID,100,VALID,-0.101885,VALID,17.5931,VALID,2,VALID,0.0718006,
2007-08-15, 03:34:00,VALID,916.559,VALID,0,VALID,100,VALID,-0.118866,VALID,17.5996,VALID,280,VALID,0.290879,
2007-08-15, 03:35:00,VALID,916.57,VALID,0,VALID,100,VALID,-0.118866,VALID,17.6124,VALID,255,VALID,0.0726744,
2007-08-15, 03:36:00,VALID,916.589,VALID,0,VALID,100,VALID,-0.101885,VALID,17.6318,VALID,255,VALID,0.0024858,
2007-08-15, 03:37:00,VALID,916.587,VALID,0,VALID,100,VALID,-0.101885,VALID,17.6318,VALID,255,VALID,0,
2007-08-15, 03:38:00,VALID,916.619,VALID,0,VALID,100,VALID,-0.101885,VALID,17.6286,VALID,245,VALID,0.0744913,
2007-08-15, 03:39:00,VALID,916.647,VALID,0,VALID,100,VALID,-0.101885,VALID,17.5864,VALID,203,VALID,0.581676,
2007-08-15, 03:40:00,VALID,916.697,VALID,0,VALID,100,VALID,-0.0849042,VALID,17.5639,VALID,200,VALID,0.356357,
2007-08-15, 03:41:00,VALID,916.736,VALID,0,VALID,100,VALID,-0.118866,VALID,17.5345,VALID,203,VALID,0.43457,
2007-08-15, 03:42:00,VALID,916.763,VALID,0,VALID,100,VALID,-0.101885,VALID,17.5445,VALID,214,VALID,0.256747,
2007-08-15, 03:43:00,VALID,916.768,VALID,0,VALID,100,VALID,-0.118866,VALID,17.554,VALID,214,VALID,0.00218023,